sat.trackr.live / text

‹ back to catalog

STARLINK-36795

NORAD 67809 · 2026-032N

PAYLOAD ACTIVE UNKNOWN

§ Identity

Operator
Country
US
Launch date
2026-02-15
Launch site
AFWTR
Launch vehicle
Mass (kg)
RCS (m²)

Purposes: comms

External: N2YO · Heavens-Above · Gunter

§ Orbital elements

Epoch: 2026-05-25T01:40:09.801696Z

Period
93.91 min
Inclination
97.2850°
Eccentricity
0.0000953
Mean motion
15.33456522 rev/d
Perigee alt
464.9 km
Apogee alt
466.2 km
Semi-major
6,843.6 km
B*
4.6019e-4
RAAN
333.1255°
Arg perigee
88.6340°
Mean anomaly
271.5012°
Rev number
1,666

§ Raw data

STARLINK-367951 67809U 26032N   26145.06955789  .00014816  00000+0  46019-3 0  99922 67809  97.2850 333.1255 0000953  88.6340 271.5012 15.33456522 16664

JSON: /api/v1/satellites/67809 · /tle

For live sub-satellite position, see the globe view (requires WebGL).

§ Visibility from observer

Set your observer location to see the next 7 days of passes ≥ 10°. The values pass through the URL so the page stays shareable.

No JS? Fill the form by hand. The geolocation button needs JavaScript.